Weather in Berezinskiy

Russia / Chelyabinsk Oblast     53°39′17″N   60°18′15″E
temp.,
°C
wind,
m/s
gust,
m/s
humid.,
%
clouds,
%
prec.,
mm/h
press.,
hPa
HPBL,
m
7 may, fri
fri723:00+8nw38655 0.0 1019163
02:00+7nw22730 0.0 102016
05:00+6wnw11750 0.0 102110
08:00+10ese11590 0.0 1022281
11:00+14sse33395 0.0 10211271
14:00+17s33306 0.0 10201802
17:00+18ssw22275 0.0 10192160
20:00+15sse1137100 0.0 101911
8 may, sat
sat823:00+12sse2244100 0.0 101916
02:00+11s2244100 0.0 101912
05:00+11ssw1146100 0.0 101910
08:00+13sse124397 0.0 1019148
11:00+18sse1132100 0.0 10182045
14:00+20ene1126100 0.0 10162608
17:00+19e2224100 0.0 10152681
20:00+17e3334100 0.0 101565
9 may, sun
sun923:00+12sse4963100 0.0 1016290
02:00+11sse2464100 0.0 101673
05:00+11n125997 0.0 101611
08:00+14n245197 0.0 1016469
11:00+17nne6637100 0.0 10152149
14:00+16ne554299 0.0 10151472
17:00+19n5634100 0.0 10152221
20:00+16nnw4847100 0.0 1015166
10 may, mon
mon1023:00+13nnw4105397 0.0 1016173
02:00+11n49577 0.0 1016159
05:00+9n486362 0.0 1018125
08:00+13nne46565 0.0 1019268
11:00+19ne56405 0.0 10201478
14:00+22ene453021 0.0 10192772
17:00+22ene442866 0.0 10192542
20:00+19e233799 0.0 102044
11 may, tue
tue1123:00+17sw113798 0.0 102111
02:00+14sw334196 0.0 102125
05:00+13wsw3646100 0.0 102296
08:00+16w344899 0.0 1022185
11:00+21wsw453391 0.0 10221045
14:00+21w453498 0.0 10212363
17:00+20n454692 0.1 1022857
20:00+15nne477011 0.6 1023361